User: anonymous   Login
Location: Unspecified
(0.0000°N, 0.0000°E)
Time: 01:09:56
(UTC+00:00)
Language:

APRIZESAT 8 - Orbit

View from above orbital plane
View from above orbital plane
View from above satellite
View from above satellite

Ground track
Ground track

The orbit data is extracted from the following two-line orbital elements,

1 39425U 13066K   21023.53683484  .00000086  00000-0  17346-4 0  9997
2 39425  97.5689  16.4093 0050334 271.8630  87.6819 14.81239450387479
Epoch (UTC): 23 January 2021 12:53:02
Eccentricity: 0.0050334
inclination: 97.5689°
perigee height: 590 km
apogee height: 660 km
right ascension of ascending node: 16.4093°
argument of perigee: 271.8630°
revolutions per day: 14.81239450
mean anomaly at epoch: 87.6819°
orbit number at epoch: 38747

The dashed part of the orbit path shows where the satellite is in the earth's shadow,  

DLR